This is the latest recevied weather packets stored in our database for station/object HI3LT-13. If no packets are shown the sender has not sent any weather packets the latest 10 day(s).
| Time | Temp. | Humidity | Pressure | Rain* | Wind** | Luminosity | Snow |
|---|---|---|---|---|---|---|---|
| 1788293744 | 33.89° C | 57% | 1013 hPa | 0 mm | - | - | - |
| 1788293144 | 33.89° C | 58% | 1013 hPa | 0 mm | - | - | - |
| 1788292543 | 33.89° C | 58% | 1013 hPa | 0 mm | - | - | - |
| 1788291942 | 33.89° C | 58% | 1013 hPa | 0 mm | - | - | - |
| 1788291341 | 33.89° C | 58% | 1013 hPa | 0 mm | - | - | - |
| 1788290741 | 33.89° C | 59% | 1013 hPa | 0 mm | - | - | - |
| 1788290140 | 33.89° C | 60% | 1013 hPa | 0 mm | - | - | - |
| 1788289540 | 33.89° C | 61% | 1013 hPa | 0 mm | - | - | - |
| 1788288939 | 33.33° C | 61% | 1013 hPa | 0 mm | - | - | - |
| 1788288338 | 33.33° C | 61% | 1013 hPa | 0 mm | - | - | - |
| 1788287737 | 33.89° C | 61% | 1013 hPa | 0 mm | - | - | - |
| 1788287137 | 37.78° C | 60% | 1013 hPa | 0 mm | - | - | - |
| 1788286548 | 32.22° C | 58% | 1013 hPa | 0 mm | - | - | - |
| 1788285935 | 35.56° C | 63% | 1013 hPa | 0 mm | - | - | - |
| 1788285335 | 32.78° C | 60% | 1014 hPa | 0 mm | - | - | - |
| 1788284734 | 35° C | 61% | 1014 hPa | 0 mm | - | - | - |
| 1788284133 | 33.33° C | 61% | 1014 hPa | 0 mm | - | - | - |
| 1788283533 | 33.89° C | 62% | 1015 hPa | 0 mm | - | - | - |
| 1788282932 | 33.89° C | 62% | 1015 hPa | 0 mm | - | - | - |
| 1788282331 | 35° C | 64% | 1015 hPa | 0 mm | - | - | - |
| 1788281730 | 36.11° C | 63% | 1015 hPa | 0 mm | - | - | - |
| 1788281130 | 30.56° C | 62% | 1015 hPa | 0 mm | - | - | - |
| 1788280529 | 33.33° C | 65% | 1015 hPa | 0 mm | - | - | - |
| 1788279928 | 31.67° C | 64% | 1015 hPa | 0 mm | - | - | - |
| 1788279328 | 33.33° C | 66% | 1015 hPa | 0 mm | - | - | - |
* Rain latest hour (hover to see other rain measurements)
** Current wind speed in m/s (hover to see current wind gust speed)